Location: Wingville
(42.9917°N, 90.4915°W)
Time: 15:11:00
(UTC+00:00)

Cosmos 1743 Rocket - Pass Details

Date: 09 December 2022
Orbit: 603 x 632 km, 82.6° (Epoch: 01 February)

Event Time Altitude Azimuth Distance (km) Brightness Sun altitude
Rises 00:17:40 0° 347° (NNW) 2,927 7.0 -19.5°
Reaches altitude 10° 00:19:56 10° 344° (NNW) 2,018 6.2 -19.9°
Maximum altitude 00:24:19 58° 266° (W) 743 4.2 -20.7°
Drops below altitude 10° 00:28:42 10° 188° (S) 2,008 6.4 -21.4°
Sets 00:30:57 0° 184° (S) 2,911 7.2 -21.8°
